Location: Madrid
(40.4000°N, 3.6830°W)
Time: 09:02:24
(UTC+01:00)

ISS - Pass Details

Date: 17 November 2017
Orbit: 402 x 407 km, 51.6° (Epoch: 21 November)

Event Time Altitude Azimuth Distance (km) Brightness Sun altitude
Exits shadow 06:21:02 82° 324° (NW) 409 -4.0 -19.4°
Maximum altitude 06:21:09 88° 35° (NE) 406 -4.0 -19.4°
Drops below altitude 10° 06:24:23 10° 127° (SE) 1,447 -0.1 -18.8°
Sets 06:26:27 0° 128° (SE) 2,302 1.1 -18.4°
